DELTA 1 DEB, 42092

Orbit data source: Space-Track

DELTA 1 DEB, 42092 is space debris in SSO originally from a launch on Sun, 15 Dec 1968 UTC launched from the Air Force Western Test Range (AFWTR). Debris objects in space refer to the collection of defunct objects orbiting the Earth. Examples of debris include non-operational satellites, rocket bodies, and fragments generated from explosions, collisions, or faulty payload assembly.

Loading next visibility...
Identifier
42092, 1968-114U
Orbit
SSO
Country
Flag of USUS
Related business
Manufacturer
Aerojet
Mission
Spacecraft
Bus & Motor
Unknown
Mass
Unknown
Launch date (UTC)
1968-12-15 (57 years ago)
Launch vehicle
Unknown
Launch site
Air Force Western Test Range (AFWTR)
Object type
Payload
Rocket body
Debris
Shape & HBR
Unknown shape, 0.1 m
Radar Cross Section
Small (<0.1 m²)

Expand to show TLE details & history
Last TLE update: 2 days ago

TLE from 2 days ago
0 DELTA 1 DEB
1 42092U 68114U   25289.05967186  .00000799  00000-0  48209-2 0  9995
2 42092 101.6560  35.8582 0035739 269.4502  90.2479 12.60538225547207
Epoch: 2025-10-16T01:25Z
TLE epoch observation values (Epoch: 2025-10-16T01:25:55.648Z)
Latitude
-0.00007°
Longitude
-10.44848°
Altitude
1,423.535 km
Speed
7.149 km/s
True Right ascension
02h 23m 25s
True Declination
0° 00' 00"
Sunlit
Object was in full shadow at epoch
Visualization orbit readout
Latitude
Unknown
Longitude
Unknown
Altitude
Unknown
Speed
Unknown
Apparent Right ascension
Unknown
Apparent Declination
Unknown
Sunlit
N/A
Visualization observer readout
Local Sidereal Time
04:25:13
Azimuth
Unknown
Elevation
Unknown
Doppler factor
Unknown
Orbital elements
Apogee altitude
1,446.115 km
Perigee altitude
1,390.388 km
Semi-major axis
7,796.388 km
Eccentricity
0.00357
Inclination
101.656°
RAAN
35.8582°
Arg. of periapsis
269.4502°
True anomaly
90.65742°
Mean anomaly
90.2479°
Eccentric anomaly
90.45266°
Mean motion
3.15285 °/min
Orbital period
114.18 mins
BSTAR
0.0048209
Loading maneuver chart data...
Computing Atmospheric mass density...
Loading historical data...
Loading historical data...
Loading historical data...
Loading historical data...
Loading historical data...
Loading historical data...
Loading historical data...

Documentation

Showing up to 5 results
|